Terminal Aerodrome Forecast
Issued by NWS

Home | Current Version | Previous Version | Graphics & Text | Print | Product List | Glossary On
Versions: 1 2 3 4 5 6 7 8 9 10 11 12 13 14 15 16 17 18 19 20 21 22
000
FTUS43 KBIS 032333
TAFJMS
TAF
KJMS 032333Z 0400/0424 11003KT 2SM FU VV028
     FM041600 18009KT 5SM FU SCT040=

USA.gov is the U.S. government's official web portal to all federal, state and local government web resources and services.